{"data":{"norad_id":67841,"epoch":"2026-09-19T08:34:34.021344Z","epoch_age_seconds":165211,"freshness":"FRESH","line1":"1 67841U 26033W   26262.35733821  .00012971  00000+0  47999-3 0  9990","line2":"2 67841  43.0025 253.2623 0001164 265.1157  94.9562 15.27585337 34293","mean_motion":15.27585337,"eccentricity":0.0001164,"inclination_deg":43.0025,"raan_deg":253.2623,"arg_perigee_deg":265.1157,"mean_anomaly_deg":94.9562,"bstar":0.00047999,"rev_number":3429,"period_min":94.266419369277,"perigee_km":482.2344749868,"apogee_km":483.83175538961,"semimajor_km":6861.1701151882,"source":"CELESTRAK","updated_at":"2026-09-20T09:00:43.671189Z"}}